Weather in Pavlovka

Russia / Penza Oblast     53˚52′37″N   45˚54′00″E
temp.,
°C
wind,
m/s
gust,
m/s
humid.,
%
clouds,
%
prec.,
mm/h
press.,
hPa
HPBL,
m
17 january, sun
sun1700:00−15˚wsw4109396 0.1 1003442
03:00−17˚wsw4119496 0.1 1005389
06:00−19˚wsw3109695 0.1 1007315
09:00−20˚wsw399797 0.1 1009274
12:00−18˚w369393 0.0 1012316
15:00−18˚wsw259596 0.0 1013275
18:00−21˚wsw129698 0.0 101620
21:00−23˚w119982 0.0 101720
18 january, mon
mon1800:00−24˚sw009974 0.0 101920
03:00−25˚s119964 0.0 101920
06:00−24˚ene019889 0.0 101920
09:00−24˚sse009778 0.0 102020
12:00−19˚e0191100 0.0 1019207
15:00−19˚nne1195100 0.0 101975
18:00−20˚nne2397100 0.0 1018115
21:00−21˚nne2297100 0.0 101890
19 january, tue
tue1900:00−20˚ne1299100 0.8 1017109
03:00−20˚nne1299100 1.6 1017105
06:00−21˚nne1299100 0.3 101633
09:00−20˚nne1199100 0.5 101671
12:00−18˚n1294100 0.3 1015247
15:00−17˚nnw1196100 0.5 1015225
18:00−19˚n1298100 0.3 101545
21:00−19˚nw1198100 0.7 101639
20 january, wed
wed2000:00−19˚wnw1198100 0.3 101643
03:00−19˚nw1299100 0.6 101796
06:00−20˚nw2399100 0.2 1017103
09:00−20˚nw259898 0.3 1018218
12:00−18˚nw359697 0.1 1019303
15:00−20˚nw269596 0.1 1020271
18:00−24˚wnw229893 0.0 102229
21:00−25˚wnw2210097 0.1 102421
21 january, thu
thu2100:00−26˚wnw12100100 0.0 102419
03:00−25˚w22100100 0.1 102520
06:00−24˚wsw229996 0.0 102529
09:00−23˚sw249998 0.1 1025103
12:00−17˚wsw3696100 0.0 1025261
15:00−16˚wsw3996100 0.0 1024271
18:00−16˚sw3995100 0.0 1024262
21:00−15˚sw41293100 0.0 1022277